SCP
-0 -0 -0 -0 -0 -0 -0 -0 0 -0 -0 -0 -0 -0 0 -0 -0 -0 0 0 0 0 0 0 0 0 0 0 0 0 0 -0 -0 0 0 0 0 0 0 0 0 0 0 0 0 0 0
-0 -0 -0 -0 -0 0 0 0 0 0 0 0 0 0 -0 -0 0 0 0 0 0 0 0 0 0 -0 0 0 0 0 -0 0 -0 0 0 0 0 0 0 0 0 0 -0 -0 -0 0 0
-0 -0 -0 -0 0 0 0 0 0 0 0 0 0 0 0 0 0 0 0 0 0 0 0 0 0 0 0 -0 0 0 0 0 0 0 0 0 0 0 0 0 0 0 -0 -0 -0 0 0
-0 -0 -0 -0 -0 -0 0 0 0 0 0 0 0 0 0 0 0 0 0 0 0 0 0 0 0 0 -0 -0 0 0 0 0 0 0 0 0 0 0 0 0 0 0 0 0 0 0 -0
-0 0 0 0 0 0 0 0 0 0 0 0 0 0 0 0 -0 -0 0 0 0 0 0 0 0 0 -0 -0 0 0 0 0 0 0 0 0 0 0 0 0 0 0 0 0 0 0 0
0 0 0 0 -0 0 0 -0 -0 0 0 0 0 0 0 0 -0 0 0 0 0 0 0 0 -0 0 -0 -0 0 0 0 0 0 0 0 0 0 0 0 0 0 0 0 0 0 0 0
0 0 0 -0 -0 -0 0 0 0 0 0 0 0 0 0 0 -0 0 0 0 0 0 0 0 0 -0 -0 -0 0 0 0 0 0 0 0 0 0 0 0 0 0 0 0 0 0 0 0
-0 -0 -0 -0 -0 0 0 0 0 0 0 0 0 0 0 -0 -0 0 0 0 0 0 0 0 0 0 0 0 0 0 0 0 0 0 0 0 0 0 0 0 0 0 0 0 0 0 0
0 -0 -0 -0 0 -0 -0 0 0 0 0 0 0 0 0 -0 -0 0 0 0 0 0 0 0 -0 0 0 0 0 0 0 0 0 0 0 0 0 0 0 0 0 0 -0 -0 -0 0 0
0 -0 -0 0 -0 0 -0 0 0 0 0 0 0 0 0 -0 0 0 0 0 0 0 0 0 0 0 0 0 0 0 0 0 0 0 0 0 0 0 0 0 0 -0 -0 -0 -0 0 0
0 0 0 -0 -0 0 0 0 0 0 0 0 0 0 0 0 0 0 0 0 0 0 0 0 0 0 0 0 0 0 -0 -0 0 0 0 0 0 0 0 0 0 0 -0 0 0 0 0
0 0 -0 -0 0 0 0 0 0 0 0 0 0 0 -0 0 0 0 0 0 0 0 0 0 0 0 0 0 0 0 -0 -0 -0 0 0 0 0 0 0 0 0 0 0 0 0 0 0
0 0 0 0 0 0 0 0 0 0 0 0 0 0 -0 0 0 0 0 0 0 0 0 0 0 0 0 0 0 0 0 0 0 0 0 0 0 0 0 0 0 0 0 0 0 0 0
0 0 0 0 0 0 0 0 0 0 0 0 0 -0 0 0 0 0 0 0 0 0 0 0 0 0 0 0 0 0 0 0 0 0 0 0 0 0 0 0 -0 0 0 0 0 0 0
0 0 0 0 0 0 0 -0 0 0 0 0 0 0 0 0 0 0 0 0 0 0 0 0 0 0 0 0 0 0 0 0 0 0 0 0 0 -0 0 0 0 0 0 0 0 0 0
0 0 0 0 0 0 0 0 -0 0 0 0 0 0 0 0 0 0 0 0 0 0 0 0 0 0 0 0 0 0 0 0 0 0 0 0 0 0 0 0 0 0 0 0 0 0 0
0 0 0 0 0 0 0 0 0 -0 0 0 0 0 0 0 0 0 0 0 0 0 0 0 0 0 0 0 0 0 0 0 0 0 0 0 0 0 0 0 0 -0 0 0 0 0 0
0 0 0 0 0 0 0 0 0 0 0 0 0 0 0 0 0 0 0 0 0 0 0 0 0 0 0 0 0 0 0 0 0 0 0 0 0 0 0 0 -0 -0 -0 0 0 0 0
0 0 0 0 0 0 0 0 0 0 0 0 0 0 0 0 0 0 0 0 0 0 0 0 0 0 0 0 0 0 0 0 0 0 0 0 0 0 0 0 0 0 0 0 0 0 0
0 0 0 0 0 0 0 0 0 0 0 0 0 0 0 0 0 0 0 0 0 0 0 0 0 0 0 0 0 0 0 0 0 0 0 0 0 0 0 0 0 0 0 0 0 0 0
0 0 0 0 0 0 0 0 0 0 0 0 0 0 0 0 0 0 0 0 0 0 0 0 0 0 0 0 0 0 0 0 0 0 0 0 0 0 0 0 0 0 0 0 0 0 0
0 0 0 0 0 0 0 0 0 0 0 0 0 0 0 0 0 0 0 0 0 0 0 0 0 0 0 0 0 0 0 0 0 0 0 0 0 0 0 0 0 0 0 0 0 0 0
0 0 0 0 0 0 0 0 0 0 0 0 0 0 0 0 0 0 0 0 0 0 0 0 0 0 0 0 0 0 0 0 0 0 0 0 0 0 -0 0 0 0 0 0 0 0 -0
0 0 0 0 0 0 0 0 0 0 0 0 0 0 0 0 0 0 0 0 0 0 0 0 0 0 0 0 0 0 0 0 0 0 0 0 0 0 0 0 0 0 0 0 0 -0 0
0 0 0 0 0 0 0 0 0 0 0 0 0 0 0 0 0 0 0 0 0 0 0 0 0 0 0 0 0 0 0 0 0 0 0 0 0 0 0 0 0 0 0 0 -0 -0 0
0 0 0 0 0 0 0 0 0 0 0 0 0 0 0 0 0 0 0 0 0 0 0 0 0 0 0 0 0 0 0 0 0 0 0 0 0 0 0 0 0 0 -0 -0 0 0 0
0 0 0 0 0 0 0 0 0 0 0 0 0 0 0 0 0 0 0 0 0 0 0 0 0 0 0 0 0 0 0 0 0 0 0 0 0 0 0 0 0 0 -0 0 0 0 -0
0 0 0 0 0 0 0 0 0 0 0 0 0 0 0 0 0 0 0 0 0 0 0 0 0 0 0 0 0 0 0 0 0 0 0 0 0 0 0 0 0 -0 0 0 0 0 -0
0 0 0 0 0 0 0 0 0 0 0 0 0 0 0 0 0 0 0 0 0 0 0 0 0 0 0 0 0 0 0 0 0 0 0 0 0 0 0 0 0 0 0 0 0 0 -0
Wind_Speed_500mb
53 56 58 60 61 63 66 68 71 75 78 73 63 54 43 33 26 21 22 25 29 31 31 32 30 25 17 9 3 4 15 15 23 21 25 29 25 26 10 15 29 6 11 38 40 39 30
53 55 57 59 61 64 66 67 70 75 77 78 68 55 43 35 25 19 22 25 25 27 29 33 35 18 11 4 4 10 24 14 12 13 13 16 16 31 11 16 9 25 43 44 38 47 38
52 54 57 59 62 64 65 65 69 73 79 80 74 54 42 35 26 23 25 26 23 26 26 29 28 16 6 7 4 17 21 16 24 26 20 14 10 16 21 17 23 43 24 30 21 23 18
51 53 56 58 61 64 66 66 70 75 77 80 77 53 40 33 29 27 25 25 24 27 21 18 20 21 6 7 14 19 18 16 22 23 26 27 23 15 12 18 24 15 11 9 13 10 25
52 54 57 60 63 66 68 70 72 76 79 80 76 54 37 30 26 25 26 28 36 23 9 19 13 12 7 12 18 13 21 23 25 33 33 30 21 19 13 4 10 7 11 17 21 10 18
54 57 60 63 66 68 70 72 74 77 79 79 78 58 36 26 21 23 24 29 40 4 15 13 3 11 9 18 28 20 22 28 39 41 32 22 11 3 6 8 15 13 15 14 16 26 30
56 58 60 63 66 68 69 71 73 76 78 78 75 60 35 27 17 24 25 29 32 5 40 27 26 22 38 19 23 33 33 39 41 27 9 25 3 13 26 26 34 31 37 42 40 35 20
54 57 61 64 66 69 71 74 76 76 77 78 73 63 34 27 15 21 28 29 17 22 23 38 32 42 47 41 43 47 38 34 22 16 10 8 15 28 28 29 32 40 41 46 48 41 35
55 59 63 65 67 69 71 74 76 77 77 77 74 65 32 20 9 21 33 22 27 46 7 24 12 18 16 24 27 44 24 13 15 10 11 13 22 23 26 24 25 25 24 28 38 18 17
57 61 64 66 69 72 74 76 77 79 80 80 77 64 32 15 5 25 33 31 40 33 8 13 2 6 40 40 8 38 52 37 17 13 15 21 17 23 27 31 26 38 21 34 40 30 25
58 61 63 65 67 70 71 74 76 80 83 81 83 57 22 26 12 23 32 37 27 20 8 19 16 8 42 32 25 25 38 32 14 14 7 14 31 30 21 17 8 14 29 24 15 17 16
57 60 62 65 68 70 73 74 75 80 82 82 76 39 13 31 23 26 35 26 10 10 5 9 10 23 20 24 35 31 31 36 9 5 6 24 47 9 12 6 7 10 11 16 9 8 21
56 59 62 64 66 68 71 75 77 80 82 77 66 20 7 34 33 33 33 16 10 10 14 16 14 16 19 22 42 16 21 25 1 11 15 25 13 10 8 7 5 4 6 9 6 1 19
55 57 60 63 65 67 71 75 79 80 82 77 53 10 10 28 38 32 34 10 14 16 3 7 12 17 8 23 22 16 32 25 3 6 4 7 19 11 5 20 17 19 15 9 11 6 14
53 57 61 63 64 67 71 75 79 78 80 78 39 11 15 33 33 27 16 11 4 10 12 9 9 10 7 18 11 16 25 13 8 9 5 8 16 33 39 44 9 10 7 13 12 24 18
54 57 60 61 64 69 71 74 77 76 75 73 39 17 34 40 32 21 11 6 7 14 24 5 7 7 16 22 15 16 10 13 9 7 18 11 29 23 22 15 21 20 10 3 5 8 10
54 58 59 60 64 69 72 72 76 74 70 65 31 6 38 35 10 14 6 9 10 43 46 11 9 11 13 17 11 8 12 34 16 14 26 11 14 21 17 13 12 4 4 6 7 7 7
59 58 60 63 66 69 69 71 68 69 65 56 32 6 27 34 15 8 6 13 36 27 47 7 8 9 10 17 11 17 23 16 43 6 5 4 8 15 21 44 23 19 20 16 9 9 10
57 60 62 64 67 67 63 62 59 60 62 60 39 15 23 27 7 7 15 17 18 25 16 10 8 10 9 9 19 11 23 8 42 10 11 12 8 11 13 10 9 1 3 13 17 9 20
58 61 62 66 64 62 60 54 52 51 48 44 19 8 20 15 41 3 9 13 13 33 17 27 31 13 17 22 15 17 9 12 39 30 20 18 4 12 13 25 19 37 38 28 22 12 28
58 62 64 63 62 59 57 53 48 46 39 24 13 6 12 8 19 29 16 17 24 17 8 37 8 16 31 23 10 9 33 43 33 3 8 7 9 13 25 41 41 43 47 14 13 14 17
60 63 62 59 56 52 49 47 45 38 33 13 11 8 14 23 27 16 11 9 18 25 28 17 18 27 23 7 8 38 36 34 12 7 6 6 10 16 29 41 33 36 16 5 9 18 26
57 56 54 52 51 48 45 42 38 33 21 12 18 13 9 14 10 11 8 18 38 41 28 48 36 25 14 11 51 58 62 52 20 10 11 4 9 7 16 25 41 14 15 4 21 22 27
51 50 50 49 48 44 40 38 35 32 24 20 23 24 6 10 7 16 34 46 35 34 32 47 46 10 33 67 59 51 49 6 12 10 13 7 6 7 16 22 8 6 8 18 27 42 29
49 48 48 47 46 44 39 34 31 30 26 21 26 19 9 7 16 32 26 44 48 46 40 42 50 61 59 43 10 13 11 10 8 10 12 11 4 9 8 14 30 9 7 16 31 59 7
46 46 46 46 44 43 39 34 30 29 26 30 24 26 20 10 12 27 45 41 27 16 12 18 62 38 41 3 6 3 6 8 11 14 5 9 16 5 8 10 10 6 21 45 28 14 12
45 45 44 43 41 40 38 35 32 26 26 31 34 27 26 17 46 30 26 27 24 16 13 35 22 24 16 6 5 2 7 10 7 8 10 13 8 7 12 11 12 10 35 40 10 15 56
42 43 43 42 42 41 39 38 35 32 27 29 40 35 36 30 58 72 54 24 31 45 14 25 23 7 9 11 4 5 3 7 8 8 10 8 11 6 8 8 12 31 31 9 25 70 75
43 43 43 42 43 41 41 41 39 36 33 26 42 41 41 47 54 76 84 88 76 54 54 17 14 7 8 3 1 3 5 6 7 7 3 7 4 8 6 11 42 43 42 51 61 66 76
Wind_Direction_500mb
42 37 34 29 24 22 19 17 16 14 12 7 1 357 354 349 342 339 343 345 349 350 350 351 339 344 353 4 335 15 356 34 40 33 10 353 1 357 355 304 337 239 323 318 310 312 300
39 34 29 25 22 20 18 16 14 12 9 8 3 0 359 355 351 347 346 343 343 344 347 347 345 338 343 323 3 352 344 12 9 12 13 10 328 339 311 331 338 311 314 307 316 313 315
35 30 26 23 21 18 15 13 11 9 8 7 6 3 3 3 1 355 354 351 343 337 341 352 1 11 330 340 326 317 331 327 310 295 285 282 316 314 315 320 315 312 316 316 303 299 287
30 26 23 20 18 17 15 11 9 8 7 6 5 4 6 10 6 1 0 0 350 334 335 338 346 350 283 2 236 284 301 315 309 313 279 282 277 267 270 289 315 313 312 322 280 322 284
26 23 20 17 15 13 11 9 7 6 6 6 5 2 3 11 18 15 12 8 355 331 359 340 326 342 292 329 260 279 245 266 285 292 285 279 253 237 268 9 349 316 262 272 293 285 265
22 19 17 15 13 10 8 7 5 5 5 4 4 2 358 4 11 24 7 5 358 106 2 344 270 318 277 313 303 307 270 278 292 297 279 229 247 196 342 87 263 260 278 277 277 300 301
18 15 12 11 10 7 6 5 4 2 2 2 0 359 356 352 350 2 4 0 5 341 318 281 268 270 279 308 310 301 285 273 278 286 224 273 158 233 244 223 241 255 262 269 268 282 280
14 12 9 8 6 4 4 3 3 1 0 1 359 359 356 353 349 3 11 2 14 324 308 301 275 263 271 285 285 301 299 256 248 224 255 346 257 247 247 253 246 249 258 269 271 270 264
10 8 6 5 4 3 2 1 1 359 358 358 360 356 354 358 14 6 17 10 348 328 308 301 273 263 299 310 269 304 338 259 229 251 256 230 254 276 272 282 286 277 281 289 285 289 269
7 5 4 3 2 2 1 359 359 358 357 355 355 350 351 12 40 16 8 357 338 343 59 317 307 39 341 349 309 35 14 17 22 329 289 271 280 248 269 269 278 282 292 291 290 292 287
2 2 2 2 1 359 359 358 358 358 355 354 354 348 6 8 357 353 347 343 322 330 59 316 18 15 349 7 6 8 3 1 326 303 331 286 312 288 264 262 355 300 310 299 304 298 294
358 358 358 359 359 358 356 356 357 355 353 352 356 355 36 30 18 352 354 351 307 44 351 16 45 345 2 358 354 346 7 5 4 328 259 290 296 244 275 67 92 23 357 311 241 154 259
354 355 354 355 357 357 355 353 355 354 351 350 357 12 67 22 9 2 355 349 46 69 337 346 341 335 320 358 345 360 358 343 287 4 332 327 319 324 68 348 302 35 7 319 296 229 255
350 350 351 352 354 355 352 350 351 352 352 350 358 11 23 12 4 2 349 48 63 357 63 296 323 312 348 358 330 353 342 325 117 194 294 322 326 358 323 303 281 263 184 183 271 238 294
345 346 347 349 350 351 349 348 348 350 352 351 2 12 19 4 347 353 348 50 226 323 323 298 319 286 258 328 294 333 321 279 246 171 184 296 270 302 293 283 251 276 162 226 251 261 256
341 341 343 346 348 349 349 349 347 349 352 353 2 65 12 345 329 318 63 266 321 303 311 260 280 271 310 323 320 328 308 259 278 152 155 235 291 286 304 328 264 201 190 337 187 255 248
335 337 339 341 343 344 346 347 346 349 354 355 6 59 10 358 68 30 108 241 290 320 319 275 253 262 261 292 286 280 256 292 287 207 200 188 213 279 301 220 224 324 201 179 210 230 263
328 330 333 334 336 337 339 344 347 349 355 1 355 349 345 0 51 7 350 317 318 317 329 319 277 257 267 299 286 302 279 280 309 260 255 270 260 272 259 273 278 256 262 238 238 223 221
326 326 328 331 332 333 336 341 348 350 351 353 338 311 342 17 60 327 303 309 301 326 316 330 294 260 288 278 314 267 297 287 311 164 204 187 229 293 318 351 18 105 155 231 239 237 239
323 325 327 329 331 332 335 339 342 349 351 351 342 354 344 360 355 305 312 291 314 321 314 342 302 347 325 306 275 282 296 291 309 284 298 151 247 229 255 279 287 286 282 276 266 248 268
323 323 325 326 329 330 332 334 336 340 355 0 17 353 21 311 321 314 297 291 333 334 257 322 320 328 317 309 319 260 304 313 317 31 72 154 241 234 247 266 276 271 272 267 277 266 266
320 322 323 327 330 332 334 338 339 342 351 1 5 353 316 290 303 303 330 303 321 317 328 301 318 318 307 276 250 307 306 307 288 54 182 186 273 258 276 278 271 271 223 245 277 273 266
321 323 326 330 332 335 335 338 340 340 348 342 321 317 312 268 285 309 276 328 310 315 312 323 308 315 298 276 314 291 285 281 239 204 186 247 298 295 287 299 305 277 149 336 285 292 277
320 324 328 331 333 337 336 339 344 340 335 315 308 304 240 272 287 284 296 301 308 306 293 298 306 282 306 321 319 309 302 306 158 183 171 204 273 266 291 316 277 97 125 308 289 296 282
321 324 326 328 329 333 335 332 337 340 329 311 306 295 257 269 276 289 308 312 301 300 286 285 298 310 314 314 322 337 334 2 274 191 210 199 263 282 298 300 271 144 25 320 324 305 311
319 322 325 326 326 327 330 331 330 336 337 318 298 293 261 277 244 296 305 302 296 290 284 289 314 317 317 333 42 320 282 292 318 321 188 309 300 232 294 290 276 79 325 332 314 267 324
319 322 324 325 327 326 325 321 319 328 340 322 309 296 268 252 280 285 293 304 291 295 294 308 328 322 349 13 14 335 282 316 290 306 314 312 306 244 273 262 272 358 342 324 330 291 311
318 320 321 323 324 325 326 319 313 308 313 316 307 298 273 262 280 283 279 252 274 288 278 298 336 332 15 27 48 310 282 272 308 269 308 307 313 316 298 283 298 3 344 351 297 298 298
317 318 318 319 318 320 322 321 313 308 301 301 302 308 293 254 265 283 285 283 283 286 264 249 245 305 270 71 162 307 302 305 277 290 219 293 219 293 225 264 296 325 319 314 314 307 309
Wind_Speed_850mb
53 56 58 60 61 63 66 68 71 75 78 73 63 54 43 33 26 21 22 25 29 31 31 32 30 25 17 9 3 4 15 15 23 21 25 29 25 26 10 15 29 6 11 38 40 39 30
53 55 57 59 61 64 66 67 70 75 77 78 68 55 43 35 25 19 22 25 25 27 29 33 35 18 11 4 4 10 24 14 12 13 13 16 16 31 11 16 9 25 43 44 38 47 38
52 54 57 59 62 64 65 65 69 73 79 80 74 54 42 35 26 23 25 26 23 26 26 29 28 16 6 7 4 17 21 16 24 26 20 14 10 16 21 17 23 43 24 30 21 23 18
51 53 56 58 61 64 66 66 70 75 77 80 77 53 40 33 29 27 25 25 24 27 21 18 20 21 6 7 14 19 18 16 22 23 26 27 23 15 12 18 24 15 11 9 13 10 25
52 54 57 60 63 66 68 70 72 76 79 80 76 54 37 30 26 25 26 28 36 23 9 19 13 12 7 12 18 13 21 23 25 33 33 30 21 19 13 4 10 7 11 17 21 10 18
54 57 60 63 66 68 70 72 74 77 79 79 78 58 36 26 21 23 24 29 40 4 15 13 3 11 9 18 28 20 22 28 39 41 32 22 11 3 6 8 15 13 15 14 16 26 30
56 58 60 63 66 68 69 71 73 76 78 78 75 60 35 27 17 24 25 29 32 5 40 27 26 22 38 19 23 33 33 39 41 27 9 25 3 13 26 26 34 31 37 42 40 35 20
54 57 61 64 66 69 71 74 76 76 77 78 73 63 34 27 15 21 28 29 17 22 23 38 32 42 47 41 43 47 38 34 22 16 10 8 15 28 28 29 32 40 41 46 48 41 35
55 59 63 65 67 69 71 74 76 77 77 77 74 65 32 20 9 21 33 22 27 46 7 24 12 18 16 24 27 44 24 13 15 10 11 13 22 23 26 24 25 25 24 28 38 18 17
57 61 64 66 69 72 74 76 77 79 80 80 77 64 32 15 5 25 33 31 40 33 8 13 2 6 40 40 8 38 52 37 17 13 15 21 17 23 27 31 26 38 21 34 40 30 25
58 61 63 65 67 70 71 74 76 80 83 81 83 57 22 26 12 23 32 37 27 20 8 19 16 8 42 32 25 25 38 32 14 14 7 14 31 30 21 17 8 14 29 24 15 17 16
57 60 62 65 68 70 73 74 75 80 82 82 76 39 13 31 23 26 35 26 10 10 5 9 10 23 20 24 35 31 31 36 9 5 6 24 47 9 12 6 7 10 11 16 9 8 21
56 59 62 64 66 68 71 75 77 80 82 77 66 20 7 34 33 33 33 16 10 10 14 16 14 16 19 22 42 16 21 25 1 11 15 25 13 10 8 7 5 4 6 9 6 1 19
55 57 60 63 65 67 71 75 79 80 82 77 53 10 10 28 38 32 34 10 14 16 3 7 12 17 8 23 22 16 32 25 3 6 4 7 19 11 5 20 17 19 15 9 11 6 14
53 57 61 63 64 67 71 75 79 78 80 78 39 11 15 33 33 27 16 11 4 10 12 9 9 10 7 18 11 16 25 13 8 9 5 8 16 33 39 44 9 10 7 13 12 24 18
54 57 60 61 64 69 71 74 77 76 75 73 39 17 34 40 32 21 11 6 7 14 24 5 7 7 16 22 15 16 10 13 9 7 18 11 29 23 22 15 21 20 10 3 5 8 10
54 58 59 60 64 69 72 72 76 74 70 65 31 6 38 35 10 14 6 9 10 43 46 11 9 11 13 17 11 8 12 34 16 14 26 11 14 21 17 13 12 4 4 6 7 7 7
59 58 60 63 66 69 69 71 68 69 65 56 32 6 27 34 15 8 6 13 36 27 47 7 8 9 10 17 11 17 23 16 43 6 5 4 8 15 21 44 23 19 20 16 9 9 10
57 60 62 64 67 67 63 62 59 60 62 60 39 15 23 27 7 7 15 17 18 25 16 10 8 10 9 9 19 11 23 8 42 10 11 12 8 11 13 10 9 1 3 13 17 9 20
58 61 62 66 64 62 60 54 52 51 48 44 19 8 20 15 41 3 9 13 13 33 17 27 31 13 17 22 15 17 9 12 39 30 20 18 4 12 13 25 19 37 38 28 22 12 28
58 62 64 63 62 59 57 53 48 46 39 24 13 6 12 8 19 29 16 17 24 17 8 37 8 16 31 23 10 9 33 43 33 3 8 7 9 13 25 41 41 43 47 14 13 14 17
60 63 62 59 56 52 49 47 45 38 33 13 11 8 14 23 27 16 11 9 18 25 28 17 18 27 23 7 8 38 36 34 12 7 6 6 10 16 29 41 33 36 16 5 9 18 26
57 56 54 52 51 48 45 42 38 33 21 12 18 13 9 14 10 11 8 18 38 41 28 48 36 25 14 11 51 58 62 52 20 10 11 4 9 7 16 25 41 14 15 4 21 22 27
51 50 50 49 48 44 40 38 35 32 24 20 23 24 6 10 7 16 34 46 35 34 32 47 46 10 33 67 59 51 49 6 12 10 13 7 6 7 16 22 8 6 8 18 27 42 29
49 48 48 47 46 44 39 34 31 30 26 21 26 19 9 7 16 32 26 44 48 46 40 42 50 61 59 43 10 13 11 10 8 10 12 11 4 9 8 14 30 9 7 16 31 59 7
46 46 46 46 44 43 39 34 30 29 26 30 24 26 20 10 12 27 45 41 27 16 12 18 62 38 41 3 6 3 6 8 11 14 5 9 16 5 8 10 10 6 21 45 28 14 12
45 45 44 43 41 40 38 35 32 26 26 31 34 27 26 17 46 30 26 27 24 16 13 35 22 24 16 6 5 2 7 10 7 8 10 13 8 7 12 11 12 10 35 40 10 15 56
42 43 43 42 42 41 39 38 35 32 27 29 40 35 36 30 58 72 54 24 31 45 14 25 23 7 9 11 4 5 3 7 8 8 10 8 11 6 8 8 12 31 31 9 25 70 75
43 43 43 42 43 41 41 41 39 36 33 26 42 41 41 47 54 76 84 88 76 54 54 17 14 7 8 3 1 3 5 6 7 7 3 7 4 8 6 11 42 43 42 51 61 66 76
Wind_Direction_850mb
42 37 34 29 24 22 19 17 16 14 12 7 1 357 354 349 342 339 343 345 349 350 350 351 339 344 353 4 335 15 356 34 40 33 10 353 1 357 355 304 337 239 323 318 310 312 300
39 34 29 25 22 20 18 16 14 12 9 8 3 0 359 355 351 347 346 343 343 344 347 347 345 338 343 323 3 352 344 12 9 12 13 10 328 339 311 331 338 311 314 307 316 313 315
35 30 26 23 21 18 15 13 11 9 8 7 6 3 3 3 1 355 354 351 343 337 341 352 1 11 330 340 326 317 331 327 310 295 285 282 316 314 315 320 315 312 316 316 303 299 287
30 26 23 20 18 17 15 11 9 8 7 6 5 4 6 10 6 1 0 0 350 334 335 338 346 350 283 2 236 284 301 315 309 313 279 282 277 267 270 289 315 313 312 322 280 322 284
26 23 20 17 15 13 11 9 7 6 6 6 5 2 3 11 18 15 12 8 355 331 359 340 326 342 292 329 260 279 245 266 285 292 285 279 253 237 268 9 349 316 262 272 293 285 265
22 19 17 15 13 10 8 7 5 5 5 4 4 2 358 4 11 24 7 5 358 106 2 344 270 318 277 313 303 307 270 278 292 297 279 229 247 196 342 87 263 260 278 277 277 300 301
18 15 12 11 10 7 6 5 4 2 2 2 0 359 356 352 350 2 4 0 5 341 318 281 268 270 279 308 310 301 285 273 278 286 224 273 158 233 244 223 241 255 262 269 268 282 280
14 12 9 8 6 4 4 3 3 1 0 1 359 359 356 353 349 3 11 2 14 324 308 301 275 263 271 285 285 301 299 256 248 224 255 346 257 247 247 253 246 249 258 269 271 270 264
10 8 6 5 4 3 2 1 1 359 358 358 360 356 354 358 14 6 17 10 348 328 308 301 273 263 299 310 269 304 338 259 229 251 256 230 254 276 272 282 286 277 281 289 285 289 269
7 5 4 3 2 2 1 359 359 358 357 355 355 350 351 12 40 16 8 357 338 343 59 317 307 39 341 349 309 35 14 17 22 329 289 271 280 248 269 269 278 282 292 291 290 292 287
2 2 2 2 1 359 359 358 358 358 355 354 354 348 6 8 357 353 347 343 322 330 59 316 18 15 349 7 6 8 3 1 326 303 331 286 312 288 264 262 355 300 310 299 304 298 294
358 358 358 359 359 358 356 356 357 355 353 352 356 355 36 30 18 352 354 351 307 44 351 16 45 345 2 358 354 346 7 5 4 328 259 290 296 244 275 67 92 23 357 311 241 154 259
354 355 354 355 357 357 355 353 355 354 351 350 357 12 67 22 9 2 355 349 46 69 337 346 341 335 320 358 345 360 358 343 287 4 332 327 319 324 68 348 302 35 7 319 296 229 255
350 350 351 352 354 355 352 350 351 352 352 350 358 11 23 12 4 2 349 48 63 357 63 296 323 312 348 358 330 353 342 325 117 194 294 322 326 358 323 303 281 263 184 183 271 238 294
345 346 347 349 350 351 349 348 348 350 352 351 2 12 19 4 347 353 348 50 226 323 323 298 319 286 258 328 294 333 321 279 246 171 184 296 270 302 293 283 251 276 162 226 251 261 256
341 341 343 346 348 349 349 349 347 349 352 353 2 65 12 345 329 318 63 266 321 303 311 260 280 271 310 323 320 328 308 259 278 152 155 235 291 286 304 328 264 201 190 337 187 255 248
335 337 339 341 343 344 346 347 346 349 354 355 6 59 10 358 68 30 108 241 290 320 319 275 253 262 261 292 286 280 256 292 287 207 200 188 213 279 301 220 224 324 201 179 210 230 263
328 330 333 334 336 337 339 344 347 349 355 1 355 349 345 0 51 7 350 317 318 317 329 319 277 257 267 299 286 302 279 280 309 260 255 270 260 272 259 273 278 256 262 238 238 223 221
326 326 328 331 332 333 336 341 348 350 351 353 338 311 342 17 60 327 303 309 301 326 316 330 294 260 288 278 314 267 297 287 311 164 204 187 229 293 318 351 18 105 155 231 239 237 239
323 325 327 329 331 332 335 339 342 349 351 351 342 354 344 360 355 305 312 291 314 321 314 342 302 347 325 306 275 282 296 291 309 284 298 151 247 229 255 279 287 286 282 276 266 248 268
323 323 325 326 329 330 332 334 336 340 355 0 17 353 21 311 321 314 297 291 333 334 257 322 320 328 317 309 319 260 304 313 317 31 72 154 241 234 247 266 276 271 272 267 277 266 266
320 322 323 327 330 332 334 338 339 342 351 1 5 353 316 290 303 303 330 303 321 317 328 301 318 318 307 276 250 307 306 307 288 54 182 186 273 258 276 278 271 271 223 245 277 273 266
321 323 326 330 332 335 335 338 340 340 348 342 321 317 312 268 285 309 276 328 310 315 312 323 308 315 298 276 314 291 285 281 239 204 186 247 298 295 287 299 305 277 149 336 285 292 277
320 324 328 331 333 337 336 339 344 340 335 315 308 304 240 272 287 284 296 301 308 306 293 298 306 282 306 321 319 309 302 306 158 183 171 204 273 266 291 316 277 97 125 308 289 296 282
321 324 326 328 329 333 335 332 337 340 329 311 306 295 257 269 276 289 308 312 301 300 286 285 298 310 314 314 322 337 334 2 274 191 210 199 263 282 298 300 271 144 25 320 324 305 311
319 322 325 326 326 327 330 331 330 336 337 318 298 293 261 277 244 296 305 302 296 290 284 289 314 317 317 333 42 320 282 292 318 321 188 309 300 232 294 290 276 79 325 332 314 267 324
319 322 324 325 327 326 325 321 319 328 340 322 309 296 268 252 280 285 293 304 291 295 294 308 328 322 349 13 14 335 282 316 290 306 314 312 306 244 273 262 272 358 342 324 330 291 311
318 320 321 323 324 325 326 319 313 308 313 316 307 298 273 262 280 283 279 252 274 288 278 298 336 332 15 27 48 310 282 272 308 269 308 307 313 316 298 283 298 3 344 351 297 298 298
317 318 318 319 318 320 322 321 313 308 301 301 302 308 293 254 265 283 285 283 283 286 264 249 245 305 270 71 162 307 302 305 277 290 219 293 219 293 225 264 296 325 319 314 314 307 309